Vertical_Velocity
-2 -0 -2 -3 -3 -6 -5 0 -0 -2 -3 -1 1 3 -1 -3 2 2 1 4 8 -1
-6 -7 -5 -3 -4 -3 -4 -5 -3 -2 -2 -4 -2 -1 2 5 5 0 2 3 -2 6
4 6 6 3 2 -0 1 1 -3 -6 -3 -2 3 -0 -1 -1 3 5 6 4 -1 8
-3 1 4 6 9 6 6 6 3 -1 -1 -4 -3 -0 -3 -0 6 -4 -1 2 1 -0
3 3 3 29 9 16 5 3 -2 -2 -4 -7 -5 1 2 -2 -0 -7 -4 2 -2 3
6 7 3 1 -12 1 8 4 6 2 -2 -4 -2 -4 3 -0 -0 -4 -1 -2 1 0
-11 -3 -9 -1 -4 6 -4 2 8 2 6 4 -5 2 4 -6 -2 -7 -8 -7 2 0
-3 -3 -8 10 -10 -17 32 19 -5 12 4 1 -1 7 -7 0 4 -8 -3 -8 4 -3
-5 -1 5 6 -7 13 -3 -18 14 2 -0 0 1 -1 -2 -2 -1 4 -1 5 9 -6
4 2 -3 -3 2 9 -5 2 1 0 -1 -5 4 3 -1 -2 -0 3 -3 -0 -3 -4
2 -6 3 2 10 15 -7 -2 3 -0 1 -7 5 5 1 -1 -7 1 -7 -2 0 1
3 4 -1 -9 1 -5 -15 1 0 -1 -4 -6 1 5 2 -5 1 -6 -6 4 4 6
2 10 3 -13 -1 3 0 1 2 -0 -1 1 -4 4 6 -6 -3 -1 -5 -10 13 11
2 -1 -0 1 3 0 -1 -2 3 1 0 -0 1 -1 5 1 -4 -2 -3 3 10 9
Height
3050 3048 3045 3043 3040 3038 3036 3033 3030 3029 3028 3025 3024 3023 3022 3020 3018 3015 3016 3015 3016 3014
3040 3039 3037 3034 3030 3028 3025 3023 3020 3018 3017 3014 3011 3009 3007 3006 3004 3001 3000 3000 2999 2996
3029 3028 3026 3023 3020 3017 3014 3011 3008 3007 3005 3003 3000 2996 2995 2993 2990 2987 2985 2984 2984 2982
3019 3016 3015 3013 3010 3008 3004 3001 2998 2995 2993 2991 2989 2986 2983 2981 2977 2973 2970 2968 2967 2967
3011 3008 3007 3006 3002 2999 2996 2993 2990 2988 2986 2983 2980 2976 2972 2969 2967 2963 2959 2954 2952 2951
3004 3000 2997 2994 2988 2987 2986 2984 2982 2980 2978 2975 2970 2967 2964 2960 2957 2954 2948 2943 2938 2936
2994 2991 2988 2984 2979 2977 2974 2973 2973 2972 2969 2966 2964 2960 2955 2951 2947 2945 2939 2932 2927 2924
2986 2983 2979 2977 2971 2969 2968 2966 2964 2962 2960 2958 2955 2952 2948 2944 2939 2935 2930 2924 2918 2915
2976 2974 2972 2968 2964 2962 2959 2957 2956 2954 2951 2948 2946 2945 2941 2936 2932 2927 2922 2918 2912 2908
2966 2962 2960 2959 2957 2954 2949 2948 2947 2945 2943 2939 2938 2935 2933 2930 2925 2920 2917 2912 2909 2905
2955 2951 2949 2947 2946 2943 2940 2936 2935 2934 2933 2930 2929 2927 2924 2922 2920 2916 2912 2907 2904 2902
2944 2941 2938 2935 2932 2930 2928 2926 2924 2923 2922 2920 2920 2918 2917 2915 2914 2912 2909 2904 2899 2899
2929 2927 2924 2921 2920 2919 2917 2915 2913 2912 2911 2909 2909 2909 2908 2907 2907 2905 2904 2901 2896 2895
2916 2915 2912 2911 2910 2908 2907 2905 2904 2903 2902 2900 2900 2900 2900 2900 2900 2899 2898 2896 2894 2893